星链-5966 (STARLINK-5966 )

导读

STARLINK-5966是美国SpaceX公司星链星座的一员,于2023年6月12日发射入轨。它运行在550公里左右的近地轨道,属于星链v1.5批次,配备激光星间链路,工作于Ku、Ka波段,为全球提供低延迟卫星互联网服务,帮助实现偏远地区网络覆盖,也支持海上、航空移动互联网接入,是星链全球覆盖组网的重要组成部分,设计寿命约5年,退役后会主动离轨在大气层烧毁,减少空间碎片。

基本信息
目录编号:
56919
目录名称:
STARLINK-5966
国际标识:
2023-083AV
轨道中心:
EARTH
卫星名称:
星链-5966
卫星全名:
星链-5966 (STARLINK-5966 )
卫星状态:
在轨 (已飞行1098 天)
发射日期:
2023-06-12 UTC
国别 :
美国 (US)
星等 :
--
轨道信息
数据来源 国际轨道数据
星历时间: 2026-06-14T06:45:31+0800
23小时前
查看轨道信息
半长轴: 6861.201km
偏心率: 0.0001453
轨道倾角: 43.002°
近地点辐角 277.292°
升交点赤经 246.722°
平近点角 82.777°
近地点: 482.067km
远地点: 484.061km
周期: 94.267分钟
每日圈数: 15.275753
详细信息
固有亮度:
5
最大亮度:
2.4
卫星平台:
Starlink v1.5
覆盖范围:
全球
运营商:
太空探索技术公司
运营商所在国:
美国
制造商(研发单位):
太空探索技术公司
制造商所在国:
美国
使用方式:
暂无
卫星简介
星链(Starlink)计划是由太空探索技术公司(SpaceX)提出的一个巨型低轨卫星互联网星座项目,计划在2019年至2024年间在太空搭建由约1.2万颗卫星组成的“星链”网络,其中1584颗将部署在地球上空550千米处的近地轨道,并从2020年开始工作。该卫星仍在工作。
2D轨道图
3D轨道图
轨道高度分析图
轨道倾角分析图
轨道综合分析图
查看轨道综合分析图